Regional Weather Roundup
Issued by NWS

Home | Current Version | Previous Version | Graphics & Text | Print | Product List | Glossary On
Versions: 1 2 3 4 5 6 7 8 9 10 11 12 13 14 15 16 17 18 19 20 21 22 23 24 25 26 27 28 29 30 31 32 33 34 35 36 37 38 39 40 41 42 43 44 45 46 47 48 49 50
000
ASUS43 KLMK 221810
RWRKY
KENTUCKY REGIONAL WEATHER ROUNDUP
NATIONAL WEATHER SERVICE LOUISVILLE KY
200 PM EDT FRI AUG 22 2014

NOTE "FAIR" INDICATES FEW OR NO CLOUDS BELOW 12,000 FEET
WITH NO SIGNIFICANT WEATHER AND/OR OBSTRUCTIONS TO VISIBILITY.

KYZ001>023-026-027-061>063-070>075-221900-
WESTERN AND SOUTH CENTRAL KENTUCKY

CITY           SKY/WX    TMP DP  RH WIND       PRES   REMARKS
PADUCAH        PTSUNNY   92  76  59 SW7       30.03F HX 104
HENDERSON      PTSUNNY   90  73  58 W5        30.01F HX  98
OWENSBORO      PTSUNNY   87  75  67 W7        30.03F HX  96
HOPKINSVILLE   PTSUNNY   89  75  64 W7        30.06F HX  99
BOWLING GREEN  CLOUDY    88  74  63 W9        30.06S HX  96
GLASGOW        CLOUDY    86  73  63 SW10      30.07S HX  93
$$

KYZ024-025-028>034-038-045-046-053-221900-
NORTH CENTRAL KENTUCKY

CITY           SKY/WX    TMP DP  RH WIND       PRES   REMARKS
LOUISVILLE/SDF CLOUDY    88  75  65 W12       30.01F HX  97
LOUISVILLE/LOU PTSUNNY   88  74  63 W10       30.01F HX  96
FORT KNOX      CLOUDY    86  75  70 VRB6      30.02F HX  95
$$

KYZ035>037-039>044-047>052-055>060-089>105-221900-
NORTHEAST KENTUCKY

CITY           SKY/WX    TMP DP  RH WIND       PRES   REMARKS
LEXINGTON      CLOUDY    86  74  67 W9        30.03F HX  94
COVINGTON      CLOUDY    81  74  79 W6        30.01R
FRANKFORT      CLOUDY    85  74  69 SW10      30.02F HX  92
$$

KYZ054-064>069-076>088-106>120-221900-
SOUTHEAST KENTUCKY

CITY           SKY/WX    TMP DP  RH WIND       PRES   REMARKS
JACKSON        PTSUNNY   85  74  69 CALM      30.06F HX  92
LONDON         PTSUNNY   88  72  58 W13       30.08F HX  94
SOMERSET       CLOUDY    86  72  62 W12G17    30.08F HX  92
MIDDLESBORO    MOSUNNY   88  71  57 NW10      30.08F HX  93
MONTICELLO     MOCLDY    87  76  69 SW7       30.09F HX  97
$$




USA.gov is the U.S. government's official web portal to all federal, state and local government web resources and services.